STARLINK-36520, 67466

Orbit data source: Space-Track

STARLINK-36520, 67466 is a payload satellite owned by SpaceX/Seattle (US) in LEO that was launched on Wed, 14 Jan 2026 UTC via an FALCON 9 launch vehicle from the Air Force Eastern Test Range (AFETR). Payload-class satellites include a variety of spacecraft equipped with specific instruments for various scientific and technological missions. These include communications satellites like Starlink; space stations such as the ISS; scientific satellites like the Hubble; Earth observation satellites from companies like Planet Labs, Umbra, and HawkEye 360; GPS; miniature CubeSats for education and research; and military/defense satellites.

Loading next visibility...
Identifier
67466, 2026-008X
Orbit
LEO
Country
Flag of USUS
Related business
Manufacturer
SpaceX/Seattle
Mission
Operational spacecraft
Bus & Motor
STARLINK V2MO, Unknown motor
Mass
575 kg wet, ~530 kg dry
Launch date (UTC)
2026-01-14 (2 months ago)
Launch vehicle
FALCON 9
Launch site
Air Force Eastern Test Range (AFETR)
Object type
Payload
Rocket body
Debris
Shape & HBR
Unknown shape, 17.7 m
Radar Cross Section
RCS unknown

Expand to show TLE details & history
Last TLE update: 11 hours ago

TLE from 11 hours ago
0 STARLINK-36520
1 67466U 26008X   26062.84030846  .00034172  00000-0  12455-2 0  9990
2 67466  42.9943 238.5950 0001203 273.6379  86.4334 15.27581826  8671
Epoch: 2026-03-03T20:10Z
TLE epoch observation values (Epoch: 2026-03-03T20:10:02.650Z)
Latitude
-0.0001°
Longitude
134.47025°
Altitude
482.767 km
Speed
7.626 km/s
True Right ascension
15h 54m 22s
True Declination
0° 00' 00"
Sunlit
Object was in daylight at epoch
Visualization orbit readout
Latitude
Unknown
Longitude
Unknown
Altitude
Unknown
Speed
Unknown
Apparent Right ascension
Unknown
Apparent Declination
Unknown
Sunlit
N/A
Visualization observer readout
Local Sidereal Time
11:19:01
Azimuth
Unknown
Elevation
Unknown
Doppler factor
Unknown
Orbital elements
Apogee altitude
485.815 km
Perigee altitude
484.164 km
Semi-major axis
6,863.127 km
Eccentricity
0.00012
Inclination
42.9943°
RAAN
238.595°
Arg. of periapsis
273.6379°
True anomaly
86.44716°
Mean anomaly
86.4334°
Eccentric anomaly
86.44028°
Mean motion
3.81733 °/min
Orbital period
94.31 mins
BSTAR
0.0012455
Loading maneuver chart data...
Computing Atmospheric mass density...
Loading historical data...
Loading historical data...
Loading historical data...
Loading historical data...
Loading historical data...
Loading historical data...
Loading historical data...

Documentation

Showing up to 5 results
|